Weather in Novobrattsevskiy Village

Russia / Moscow Oblast     55°51′11″N   37°23′10″E
В апреле 2022 года жителям России запретили посещать сайт meteo.paraplan.net по решению Генеральной прокуратуры. Аудитория сайта уменьшилась в 10 раз. Владельцы сайта не видят смысла в поддержке погодного сервера в таких условиях. Сайт будет закрыт в октябре.
temp.,
°C
wind,
m/s
gust,
m/s
humid.,
%
clouds,
%
prec.,
mm/h
press.,
hPa
HPBL,
m
5 october, wed
wed500:00+7s498490 0.1 1010629
03:00+7s3781100 0.3 1010843
06:00+6s4584100 0.2 1010893
09:00+7s3482100 0.5 1011566
12:00+7w4476100 0.4 1013851
15:00+9w456592 0.5 10141151
18:00+7w4676100 0.3 1015791
21:00+7wnw3779100 0.4 1017620
6 october, thu
thu600:00+7w3681100 0.0 1017384
03:00+7w2786100 0.0 1018333
06:00+6wsw26935 0.0 1018230
09:00+7wsw2585100 0.0 1018219
12:00+10sw348195 0.0 1018419
15:00+12sw367694 0.0 1017806
18:00+11sw4108727 0.0 1016510
21:00+10sw4139312 0.0 1016494
7 october, fri
fri700:00+10wsw513932 0.0 1015468
03:00+11w5139075 0.0 1015779
06:00+10wnw5138746 0.0 1017755
09:00+10wnw61177100 0.0 10191292
12:00+11w61165100 0.0 10201455
15:00+13w610585 0.0 10211301
18:00+12w510670 0.0 1022919
21:00+10w411775 0.0 1023553
8 october, sat
sat800:00+9wsw398413 0.0 1024307
03:00+8wsw388922 0.0 1023245
06:00+7sw398978 0.0 1024267
09:00+9sw48819 0.0 1023311
12:00+13sw576329 0.0 1022723
15:00+14sw575368 0.0 1020938
18:00+12ssw41066100 0.0 1020704
21:00+11sw51272100 0.0 1019637
9 october, sun
sun900:00+10sw51473100 0.0 1018624
03:00+9ssw51377100 0.0 1016528
06:00+9ssw51376100 0.0 1015529
09:00+10sw51173100 0.0 1015536
12:00+10wsw4775100 0.0 1015524
15:00+10wsw3887100 1.4 1015476
18:00+10wsw3889100 0.7 1016577
21:00+9wnw488464 0.8 1018489